Regional Weather Roundup
Issued by NWS

Home | Current Version | Previous Version | Graphics & Text | Print | Product List | Glossary On
Versions: 1 2 3 4 5 6 7 8 9 10 11 12 13 14 15 16 17 18 19 20 21 22 23 24 25 26 27 28 29 30 31 32 33 34 35 36 37 38 39 40 41 42 43 44 45 46 47 48 49 50
000
ASUS45 KCYS 210610
RWRWY

WYOMING REGIONAL WEATHER ROUNDUP
NATIONAL WEATHER SERVICE CHEYENNE WY
1200 AM MDT SUN SEP 21 2014

NOTE:  "FAIR" INDICATES FEW OR NO CLOUDS BELOW 12,000 FEET
WITH NO SIGNIFICANT WEATHER AND/OR OBSTRUCTIONS TO VISIBILITY.

WYZ001-210700-
YELLOWSTONE NATIONAL PARK

CITY           SKY/WX    TMP DP  RH WIND       PRES   REMARKS
LK YELLOWSTONE   N/A     38  34  85 NW3       30.44R
6HR MIN TEMP:  38; 6HR MAX TEMP:  64;

W YELLOWSTONE  NOT AVBL

$$
WYZ002>013-054>058-071-098>099-210700-
NORTHERN WYOMING

CITY           SKY/WX    TMP DP  RH WIND       PRES   REMARKS
JACKSON        CLEAR     55  43  62 N17       30.31R
CODY             N/A    N/A N/A N/A MISG        N/A
GREYBULL       CLEAR     54  40  59 W6        30.26R
6HR MIN TEMP:  53; 6HR MAX TEMP:  78;

WORLAND        CLEAR     55  43  63 SW5       30.27R
6HR MIN TEMP:  53; 6HR MAX TEMP:  76;

SHERIDAN       CLEAR     48  41  76 S3        30.31R
6HR MIN TEMP:  45; 6HR MAX TEMP:  71;

BUFFALO        CLEAR     51  40  65 W6        30.37R
6HR MIN TEMP:  50; 6HR MAX TEMP:  67;

GILLETTE       CLEAR     44  38  79 S8        30.33R
6HR MIN TEMP:  42; 6HR MAX TEMP:  69;

HULETT         FAIR      52  36  54 MISG      30.34
NEWCASTLE      FAIR      46  36  66 CALM      30.34

$$
WYZ014>020-022>026-101>103-210700-
CENTRAL WYOMING

CITY           SKY/WX    TMP DP  RH WIND       PRES   REMARKS
BIG PINEY      CLEAR     51  33  50 NW10      30.35R
6HR MIN TEMP:  48; 6HR MAX TEMP:  75; 6HR PCP: TRACE;

PINEDALE       CLEAR     43  34  70 NW6       30.36R
DUBOIS         FAIR      46  36  66 CALM      30.43R
LANDER         CLEAR     55  41  59 W8        30.33R
6HR MIN TEMP:  55; 6HR MAX TEMP:  77; 6HR PCP: TRACE;

RIVERTON       MOCLDY    59  38  45 E9        30.34R
6HR MIN TEMP:  59; 6HR MAX TEMP:  75;

CASPER         CLEAR     51  34  52 NE10      30.35S
6HR MIN TEMP:  50; 6HR MAX TEMP:  73;

DOUGLAS        CLEAR     48  36  63 E3        30.37R
6HR MIN TEMP:  47; 6HR MAX TEMP:  72;


$$
WYZ021-027>030-104>119-210700-
SOUTHERN WYOMING

CITY           SKY/WX    TMP DP  RH WIND       PRES   REMARKS
EVANSTON       PTCLDY    58  29  33 E7        30.30S
6HR MIN TEMP:  58; 6HR MAX TEMP:  77;

KEMMERER       CLEAR     55  32  41 NE10      30.34S
FORT BRIDGER   FAIR      59  30  32 SW6       30.34R
ROCK SPRINGS   CLEAR     56  36  47 E14       30.32R
6HR MIN TEMP:  56; 6HR MAX TEMP:  77;

DIXON          FAIR      54  37  52 NE7       30.31R
RAWLINS        CLEAR     56  38  50 NE15      30.37R
6HR MIN TEMP:  56; 6HR MAX TEMP:  75;

SARATOGA       FAIR      54  43  66 S7        30.36R
LARAMIE        CLEAR     53  36  52 E12       30.40S
6HR MIN TEMP:  53; 6HR MAX TEMP:  71;

CHEYENNE       MOCLDY    57  38  48 NE5       30.38S
6HR MIN TEMP:  57; 6HR MAX TEMP:  73;

TORRINGTON     PTCLDY    56  40  55 CALM      30.31R
6HR MIN TEMP:  53; 6HR MAX TEMP:  76;

PINE BLUFFS    FAIR      52  41  66 NE3       30.35F

$$



USA.gov is the U.S. government's official web portal to all federal, state and local government web resources and services.